QPF
0.00 0.00 0.00 0.00 0.00 0.00 0.00 0.00 0.00 0.04 0.04 0.00 0.00 0.00 0.00 0.00 0.00 0.04 0.11 0.11 0.07 0.08 0.05 0.01 0.02 0.01 0.02 0.00 0.00 0.02 0.03 0.06 0.04 0.07 0.04 0.02 0.01 0.07 0.05 0.02 0.01 0.00 0.01
0.00 0.00 0.00 0.00 0.00 0.00 0.00 0.00 0.00 0.01 0.03 0.00 0.00 0.00 0.00 0.00 0.00 0.01 0.05 0.07 0.06 0.02 0.02 0.01 0.01 0.02 0.02 0.00 0.00 0.01 0.04 0.09 0.10 0.05 0.07 0.09 0.03 0.02 0.01 0.02 0.03 0.01 0.00
0.03 0.00 0.00 0.00 0.00 0.00 0.00 0.00 0.00 0.00 0.00 0.01 0.01 0.00 0.00 0.00 0.00 0.00 0.00 0.03 0.06 0.02 0.02 0.00 0.02 0.00 0.01 0.00 0.00 0.01 0.04 0.04 0.03 0.03 0.05 0.07 0.05 0.01 0.00 0.00 0.01 0.02 0.03
0.00 0.00 0.00 0.00 0.00 0.01 0.01 0.02 0.03 0.03 0.05 0.02 0.02 0.02 0.01 0.00 0.00 0.00 0.00 0.00 0.01 0.01 0.01 0.01 0.02 0.00 0.00 0.00 0.00 0.04 0.05 0.03 0.00 0.01 0.02 0.03 0.07 0.01 0.01 0.01 0.02 0.03 0.01
0.00 0.00 0.00 0.00 0.00 0.00 0.00 0.00 0.05 0.06 0.06 0.03 0.08 0.03 0.00 0.01 0.01 0.00 0.00 0.00 0.00 0.00 0.00 0.00 0.03 0.01 0.00 0.00 0.00 0.01 0.04 0.03 0.02 0.00 0.00 0.00 0.02 0.01 0.04 0.03 0.02 0.02 0.01
0.00 0.00 0.00 0.00 0.01 0.02 0.03 0.02 0.03 0.07 0.05 0.03 0.00 0.00 0.00 0.03 0.01 0.00 0.00 0.00 0.00 0.00 0.00 0.00 0.00 0.02 0.01 0.00 0.00 0.00 0.00 0.02 0.03 0.00 0.00 0.00 0.01 0.02 0.02 0.03 0.01 0.01 0.00
0.00 0.00 0.00 0.01 0.13 0.14 0.12 0.07 0.03 0.08 0.02 0.00 0.00 0.00 0.01 0.00 0.00 0.00 0.00 0.00 0.00 0.00 0.00 0.00 0.02 0.02 0.02 0.01 0.02 0.00 0.00 0.00 0.00 0.01 0.00 0.00 0.01 0.02 0.03 0.02 0.02 0.01 0.00
0.00 0.00 0.00 0.02 0.12 0.12 0.05 0.04 0.08 0.09 0.03 0.03 0.08 0.02 0.00 0.00 0.00 0.00 0.00 0.00 0.00 0.00 0.00 0.00 0.00 0.00 0.02 0.04 0.02 0.01 0.01 0.00 0.00 0.00 0.01 0.03 0.00 0.01 0.02 0.03 0.01 0.00 0.00
0.01 0.00 0.01 0.01 0.06 0.04 0.01 0.08 0.07 0.08 0.07 0.02 0.03 0.10 0.04 0.00 0.00 0.00 0.00 0.00 0.00 0.00 0.00 0.00 0.00 0.00 0.00 0.01 0.03 0.01 0.01 0.00 0.00 0.00 0.00 0.04 0.02 0.00 0.00 0.01 0.01 0.01 0.00
0.00 0.00 0.00 0.00 0.00 0.00 0.00 0.01 0.02 0.01 0.00 0.02 0.01 0.02 0.01 0.00 0.01 0.00 0.00 0.00 0.00 0.00 0.00 0.00 0.02 0.03 0.03 0.01 0.02 0.02 0.00 0.00 0.01 0.00 0.00 0.05 0.02 0.00 0.00 0.00 0.00 0.00 0.01
0.00 0.00 0.00 0.00 0.00 0.00 0.00 0.00 0.01 0.02 0.00 0.00 0.01 0.01 0.00 0.00 0.00 0.01 0.00 0.00 0.00 0.00 0.00 0.00 0.01 0.06 0.10 0.03 0.00 0.01 0.00 0.00 0.01 0.01 0.02 0.06 0.07 0.02 0.00 0.00 0.00 0.00 0.00
0.00 0.00 0.00 0.00 0.01 0.01 0.00 0.00 0.00 0.01 0.06 0.04 0.03 0.01 0.02 0.04 0.01 0.01 0.00 0.00 0.00 0.00 0.00 0.00 0.00 0.02 0.10 0.13 0.01 0.00 0.00 0.00 0.00 0.00 0.00 0.03 0.06 0.09 0.04 0.00 0.00 0.00 0.00
0.00 0.02 0.00 0.00 0.00 0.00 0.00 0.00 0.00 0.00 0.04 0.07 0.11 0.08 0.04 0.02 0.08 0.02 0.01 0.00 0.01 0.00 0.00 0.00 0.00 0.00 0.00 0.05 0.03 0.00 0.00 0.00 0.00 0.00 0.00 0.01 0.04 0.08 0.10 0.03 0.00 0.00 0.00
0.00 0.00 0.00 0.01 0.00 0.01 0.05 0.01 0.02 0.04 0.00 0.00 0.04 0.04 0.01 0.00 0.00 0.01 0.05 0.06 0.03 0.00 0.00 0.00 0.00 0.00 0.00 0.00 0.00 0.00 0.00 0.00 0.00 0.00 0.00 0.00 0.01 0.04 0.08 0.09 0.03 0.00 0.00
0.00 0.00 0.00 0.05 0.04 0.09 0.05 0.07 0.08 0.05 0.01 0.00 0.00 0.00 0.00 0.00 0.00 0.00 0.01 0.01 0.05 0.02 0.04 0.02 0.09 0.02 0.01 0.00 0.00 0.00 0.00 0.00 0.00 0.00 0.00 0.00 0.01 0.01 0.03 0.04 0.05 0.05 0.01
0.00 0.00 0.00 0.01 0.01 0.03 0.06 0.07 0.11 0.05 0.00 0.00 0.00 0.00 0.01 0.01 0.04 0.01 0.00 0.03 0.08 0.04 0.03 0.02 0.16 0.11 0.08 0.03 0.02 0.01 0.00 0.00 0.00 0.00 0.00 0.00 0.01 0.02 0.00 0.00 0.01 0.01 0.01
0.00 0.00 0.00 0.00 0.00 0.00 0.01 0.05 0.03 0.01 0.00 0.01 0.03 0.09 0.15 0.23 0.11 0.06 0.01 0.01 0.06 0.06 0.00 0.05 0.09 0.12 0.12 0.14 0.08 0.01 0.01 0.00 0.00 0.00 0.00 0.00 0.01 0.02 0.02 0.00 0.00 0.00 0.00
0.00 0.00 0.01 0.00 0.00 0.00 0.00 0.01 0.01 0.00 0.01 0.07 0.07 0.10 0.16 0.22 0.04 0.10 0.10 0.06 0.07 0.06 0.01 0.11 0.09 0.11 0.13 0.13 0.16 0.04 0.01 0.00 0.00 0.00 0.00 0.00 0.00 0.00 0.01 0.03 0.02 0.00 0.00
0.00 0.00 0.00 0.00 0.00 0.00 0.00 0.00 0.00 0.00 0.00 0.00 0.00 0.01 0.01 0.01 0.00 0.00 0.03 0.05 0.07 0.14 0.01 0.02 0.01 0.03 0.13 0.14 0.11 0.01 0.02 0.01 0.00 0.00 0.00 0.00 0.00 0.00 0.01 0.26 0.39 0.12 0.00
0.00 0.00 0.00 0.00 0.00 0.00 0.01 0.02 0.00 0.00 0.00 0.00 0.00 0.00 0.00 0.00 0.00 0.00 0.00 0.00 0.00 0.01 0.04 0.00 0.01 0.02 0.08 0.12 0.03 0.05 0.04 0.01 0.01 0.00 0.00 0.00 0.00 0.00 0.00 0.04 0.08 0.13 0.01
0.00 0.00 0.00 0.01 0.00 0.00 0.00 0.01 0.00 0.00 0.00 0.00 0.00 0.01 0.02 0.00 0.00 0.00 0.00 0.00 0.00 0.00 0.00 0.01 0.04 0.01 0.02 0.07 0.11 0.10 0.05 0.06 0.02 0.01 0.00 0.00 0.00 0.00 0.00 0.00 0.00 0.01 0.00
0.00 0.00 0.00 0.01 0.01 0.00 0.00 0.00 0.01 0.01 0.01 0.00 0.00 0.00 0.00 0.00 0.00 0.00 0.00 0.00 0.00 0.00 0.00 0.06 0.11 0.09 0.16 0.21 0.19 0.11 0.07 0.03 0.02 0.01 0.00 0.00 0.00 0.00 0.00 0.00 0.00 0.00 0.00
0.01 0.00 0.02 0.05 0.02 0.07 0.05 0.02 0.04 0.00 0.00 0.00 0.00 0.00 0.00 0.00 0.00 0.00 0.00 0.00 0.01 0.05 0.05 0.11 0.05 0.04 0.09 0.16 0.23 0.13 0.07 0.05 0.05 0.05 0.00 0.00 0.00 0.00 0.00 0.00 0.00 0.00 0.00
0.02 0.00 0.06 0.04 0.03 0.05 0.02 0.03 0.01 0.00 0.00 0.00 0.00 0.00 0.00 0.00 0.00 0.00 0.00 0.00 0.00 0.00 0.01 0.07 0.03 0.07 0.04 0.19 0.27 0.25 0.20 0.14 0.10 0.05 0.02 0.00 0.01 0.00 0.00 0.00 0.00 0.00 0.00
0.01 0.01 0.02 0.01 0.00 0.01 0.01 0.00 0.00 0.00 0.00 0.00 0.00 0.00 0.00 0.00 0.00 0.00 0.00 0.00 0.00 0.00 0.00 0.00 0.02 0.09 0.12 0.31 0.30 0.22 0.09 0.14 0.10 0.06 0.02 0.00 0.00 0.00 0.00 0.00 0.00 0.00 0.00
0.00 0.00 0.00 0.00 0.00 0.00 0.06 0.05 0.02 0.00 0.00 0.00 0.00 0.00 0.00 0.00 0.00 0.00 0.00 0.00 0.00 0.00 0.00 0.00 0.00 0.00 0.00 0.04 0.19 0.14 0.16 0.08 0.13 0.13 0.07 0.02 0.03 0.02 0.03 0.00 0.00 0.00 0.00
MSLP
1021.62 1021.81 1021.82 1021.84 1021.93 1022.04 1021.93 1022.19 1022.16 1021.98 1022.14 1022.52 1022.63 1022.80 1022.84 1022.51 1022.56 1022.58 1022.68 1022.68 1022.61 1022.70 1022.82 1022.78 1022.76 1022.72 1022.90 1023.07 1023.12 1023.25 1023.31 1023.46 1023.58 1023.69 1023.78 1023.95 1024.12 1024.22 1024.40 1024.59 1024.77 1024.98 1025.12
1021.69 1021.68 1021.74 1021.73 1021.76 1021.79 1021.76 1021.98 1022.35 1022.36 1022.20 1022.38 1022.52 1022.53 1022.69 1022.58 1022.60 1022.63 1022.61 1022.60 1022.49 1022.57 1022.75 1022.75 1022.73 1022.82 1022.84 1022.83 1022.96 1023.11 1023.17 1023.35 1023.40 1023.47 1023.56 1023.81 1023.96 1024.18 1024.36 1024.50 1024.67 1024.87 1025.09
1021.78 1021.68 1021.59 1021.48 1021.44 1021.60 1021.78 1021.81 1022.04 1022.31 1022.22 1022.39 1022.39 1022.30 1022.56 1022.43 1022.50 1022.35 1022.22 1022.40 1022.42 1022.44 1022.74 1022.80 1022.68 1022.68 1022.66 1022.74 1022.75 1022.92 1023.05 1023.18 1023.20 1023.21 1023.36 1023.62 1023.71 1023.92 1024.17 1024.35 1024.50 1024.73 1024.96
1021.48 1021.52 1021.37 1021.30 1021.37 1021.55 1021.48 1021.87 1021.76 1022.02 1022.10 1022.32 1022.31 1022.19 1021.89 1021.58 1021.96 1021.92 1021.82 1022.07 1021.99 1022.15 1022.37 1022.32 1022.45 1022.42 1022.46 1022.60 1022.74 1022.59 1022.99 1023.11 1023.14 1023.13 1023.23 1023.40 1023.65 1023.75 1023.88 1024.08 1024.25 1024.47 1024.76
1021.12 1021.21 1021.05 1021.01 1021.28 1021.17 1021.10 1021.09 1021.25 1021.54 1021.48 1021.78 1021.90 1021.67 1021.22 1020.95 1021.03 1021.15 1021.47 1021.44 1021.61 1021.79 1021.83 1022.06 1022.17 1022.27 1022.33 1022.42 1022.52 1022.68 1022.64 1022.95 1023.07 1023.06 1023.16 1023.25 1023.39 1023.54 1023.70 1023.87 1024.00 1024.20 1024.49
1020.75 1020.89 1020.68 1020.81 1020.92 1020.83 1020.91 1020.88 1021.10 1021.18 1021.30 1021.36 1021.41 1021.35 1020.91 1020.40 1020.20 1020.33 1020.63 1021.02 1021.39 1021.53 1021.72 1021.79 1021.74 1021.93 1022.16 1022.22 1022.24 1022.26 1022.37 1022.63 1022.93 1022.97 1022.97 1023.12 1023.21 1023.27 1023.43 1023.66 1023.75 1024.01 1024.23
1020.31 1020.49 1020.35 1020.33 1020.41 1020.67 1020.66 1020.67 1020.92 1021.10 1021.11 1021.25 1021.13 1020.32 1019.99 1019.80 1019.79 1019.75 1019.80 1020.27 1020.31 1020.80 1021.36 1021.61 1021.64 1021.77 1021.64 1021.93 1021.91 1021.89 1021.97 1022.21 1022.24 1022.70 1022.76 1022.86 1023.05 1023.12 1023.22 1023.43 1023.65 1023.80 1024.00
1019.74 1019.97 1020.11 1020.02 1020.04 1020.38 1020.39 1020.41 1020.63 1020.73 1020.76 1020.89 1020.81 1020.49 1019.62 1019.36 1019.46 1019.40 1019.83 1019.76 1019.79 1019.82 1020.28 1020.35 1020.97 1021.03 1021.25 1021.42 1021.32 1021.57 1021.59 1021.76 1021.91 1022.10 1022.38 1022.61 1022.76 1022.91 1023.07 1023.23 1023.44 1023.61 1023.81
1019.28 1019.51 1019.73 1019.82 1019.74 1019.97 1019.91 1020.16 1020.26 1020.44 1020.34 1020.50 1020.64 1020.64 1019.88 1019.15 1019.36 1019.23 1019.18 1019.29 1019.43 1019.46 1019.81 1019.39 1019.47 1019.79 1020.13 1020.72 1020.82 1020.97 1020.94 1021.18 1021.39 1021.65 1021.79 1022.11 1022.44 1022.62 1022.83 1023.05 1023.25 1023.47 1023.67
1018.91 1019.09 1019.17 1019.34 1019.45 1019.37 1019.63 1019.64 1019.68 1019.99 1020.25 1019.92 1020.09 1020.38 1020.14 1019.98 1019.65 1018.79 1019.02 1018.99 1019.04 1018.95 1018.92 1018.91 1018.76 1018.78 1019.40 1019.72 1020.17 1020.06 1020.01 1020.40 1020.67 1021.05 1021.29 1021.49 1021.90 1022.21 1022.48 1022.68 1022.96 1023.21 1023.42
1018.53 1018.65 1018.81 1018.83 1018.81 1018.81 1018.84 1019.10 1019.20 1019.45 1019.61 1019.58 1019.49 1019.52 1019.65 1019.63 1019.86 1019.74 1018.81 1018.56 1018.55 1018.38 1018.31 1018.32 1018.41 1018.06 1018.64 1019.01 1018.89 1019.32 1019.50 1019.64 1019.97 1020.27 1020.66 1020.91 1021.30 1021.60 1021.94 1022.21 1022.52 1022.86 1023.18
1017.98 1018.07 1018.18 1018.31 1018.33 1018.33 1018.44 1018.53 1018.53 1018.70 1018.72 1018.97 1018.94 1018.69 1018.77 1018.96 1019.23 1019.48 1019.18 1018.72 1018.29 1017.73 1017.52 1017.30 1017.47 1017.14 1017.99 1018.17 1018.22 1018.35 1018.79 1019.14 1019.38 1019.69 1020.03 1020.35 1020.62 1021.04 1021.30 1021.63 1021.91 1022.33 1022.74
1017.75 1017.59 1017.71 1017.88 1017.84 1017.82 1017.69 1017.81 1018.05 1018.14 1018.29 1018.34 1018.36 1018.29 1018.20 1018.03 1018.45 1018.76 1018.75 1018.25 1017.92 1017.25 1016.92 1016.63 1016.33 1016.26 1016.66 1017.55 1017.77 1017.87 1017.99 1018.34 1018.71 1019.11 1019.49 1019.69 1019.95 1020.32 1020.76 1021.00 1021.29 1021.67 1022.13
1017.19 1017.14 1017.30 1017.31 1017.17 1017.26 1017.22 1017.40 1017.70 1017.96 1017.95 1017.84 1017.81 1017.66 1017.38 1017.24 1017.57 1017.99 1018.08 1018.07 1017.48 1016.70 1016.58 1016.59 1015.96 1015.66 1015.90 1016.44 1016.68 1017.23 1017.34 1017.81 1018.05 1018.38 1018.75 1019.03 1019.31 1019.60 1019.99 1020.48 1020.68 1021.03 1021.46
1016.65 1016.77 1016.74 1016.88 1016.87 1017.07 1017.16 1017.28 1017.68 1017.72 1017.80 1017.59 1017.27 1017.30 1017.03 1016.74 1016.97 1017.31 1017.65 1017.71 1017.45 1016.80 1016.19 1016.10 1015.73 1015.54 1015.46 1015.86 1016.19 1016.53 1016.68 1016.76 1017.34 1017.65 1017.98 1018.34 1018.66 1018.99 1019.26 1019.74 1020.15 1020.51 1020.80
1016.22 1016.26 1016.38 1016.57 1016.62 1016.81 1016.82 1017.15 1017.38 1017.43 1017.45 1017.15 1016.95 1016.87 1016.66 1016.15 1016.24 1016.68 1016.99 1017.17 1017.27 1017.04 1016.53 1015.76 1015.47 1015.37 1015.26 1015.47 1015.65 1016.10 1016.18 1016.40 1016.57 1016.84 1017.20 1017.55 1017.89 1018.25 1018.61 1018.98 1019.38 1019.70 1020.15
1015.75 1015.85 1016.03 1016.08 1016.14 1016.26 1016.56 1016.76 1016.91 1016.99 1016.99 1016.53 1016.41 1016.32 1016.17 1015.80 1015.66 1015.76 1016.03 1016.31 1016.46 1016.61 1016.26 1015.47 1015.12 1014.98 1015.03 1015.06 1015.04 1015.48 1015.68 1015.86 1015.75 1016.09 1016.43 1016.79 1017.13 1017.48 1017.74 1018.14 1018.62 1019.06 1019.45
1015.02 1015.36 1015.55 1015.48 1015.61 1015.69 1015.97 1016.11 1016.35 1016.43 1016.44 1016.06 1015.98 1016.05 1015.80 1015.50 1015.27 1015.00 1015.17 1015.22 1015.29 1015.54 1015.59 1015.01 1014.66 1014.58 1014.64 1014.43 1014.60 1014.78 1014.73 1015.14 1015.07 1015.17 1015.57 1016.01 1016.30 1016.66 1017.08 1017.53 1018.07 1018.49 1018.84
1014.49 1014.59 1014.78 1014.79 1014.96 1015.04 1015.42 1015.61 1015.79 1015.82 1015.71 1015.78 1015.62 1015.60 1015.27 1015.12 1014.76 1014.32 1014.57 1014.56 1014.73 1014.59 1014.56 1014.46 1013.94 1013.76 1013.91 1013.89 1014.01 1014.25 1014.37 1014.28 1014.44 1014.53 1014.89 1015.35 1015.66 1015.88 1016.24 1016.65 1017.17 1017.62 1018.04
1013.95 1013.97 1013.97 1014.07 1014.44 1014.55 1014.71 1014.93 1015.06 1015.19 1015.09 1015.01 1015.06 1015.00 1014.57 1014.27 1014.27 1014.07 1014.03 1014.15 1014.01 1013.65 1013.79 1013.91 1013.59 1013.35 1013.29 1013.31 1013.51 1013.67 1014.03 1013.87 1013.49 1013.40 1014.01 1014.30 1014.89 1015.23 1015.39 1015.68 1016.15 1016.31 1017.00
1013.42 1013.52 1013.39 1013.55 1013.84 1013.83 1013.90 1014.20 1014.51 1014.45 1014.33 1014.25 1014.22 1014.34 1014.20 1013.90 1013.97 1013.89 1013.64 1013.22 1013.27 1013.23 1013.05 1012.93 1012.76 1012.79 1012.84 1013.33 1013.11 1013.11 1013.24 1013.14 1012.90 1012.95 1012.90 1013.37 1014.12 1014.37 1014.45 1014.89 1014.99 1015.50 1016.04
1013.04 1013.07 1013.14 1013.26 1013.32 1013.25 1013.47 1014.00 1014.16 1013.79 1013.74 1013.53 1013.25 1013.18 1013.25 1013.28 1013.07 1013.07 1013.14 1013.10 1013.04 1013.00 1012.78 1012.06 1012.26 1012.35 1012.48 1012.79 1012.77 1013.12 1013.15 1013.04 1012.35 1011.94 1012.16 1012.45 1013.69 1013.54 1013.33 1013.31 1013.82 1014.32 1014.86
1012.91 1012.94 1013.18 1013.37 1013.21 1013.23 1013.46 1013.58 1013.93 1013.65 1013.22 1013.12 1013.02 1012.87 1012.69 1012.36 1012.68 1012.63 1012.55 1012.48 1012.48 1012.40 1012.49 1012.23 1012.13 1012.03 1012.08 1012.53 1012.81 1012.98 1012.82 1012.70 1011.74 1011.72 1011.88 1011.29 1012.56 1012.93 1012.95 1012.54 1013.07 1013.34 1013.65
1013.13 1013.08 1013.09 1013.11 1013.04 1013.08 1013.26 1013.38 1013.42 1013.29 1012.80 1012.57 1012.49 1012.58 1012.51 1012.20 1012.17 1012.23 1012.09 1011.73 1011.48 1011.22 1011.30 1011.43 1011.32 1011.18 1011.26 1011.96 1012.61 1012.56 1012.42 1012.07 1011.84 1011.48 1011.61 1011.01 1011.35 1011.59 1011.65 1011.71 1012.08 1012.43 1012.79
1013.01 1012.97 1012.98 1013.00 1012.96 1013.00 1013.15 1013.17 1013.18 1012.71 1012.27 1012.11 1011.97 1011.96 1011.90 1011.68 1011.60 1011.84 1011.68 1011.27 1010.83 1010.56 1010.75 1010.86 1010.74 1010.79 1011.16 1010.55 1011.68 1012.22 1011.85 1011.77 1011.24 1010.72 1011.17 1010.73 1010.11 1010.58 1010.87 1010.71 1010.57 1011.28 1011.88
1013.31 1013.15 1013.05 1012.94 1012.86 1012.77 1012.85 1012.77 1012.76 1012.34 1011.70 1011.45 1011.26 1011.21 1011.35 1011.31 1011.16 1011.28 1011.39 1010.94 1010.42 1010.08 1010.48 1010.69 1010.88 1010.89 1010.71 1010.95 1010.76 1011.62 1010.78 1010.77 1010.43 1010.48 1010.16 1010.60 1009.76 1010.02 1009.73 1009.59 1009.90 1010.01 1010.83
Thickness
5765 5763 5761 5760 5759 5757 5757 5756 5755 5755 5754 5750 5747 5745 5744 5743 5742 5740 5739 5738 5737 5733 5731 5731 5730 5729 5729 5730 5732 5732 5733 5732 5731 5731 5731 5730 5729 5728 5728 5726 5725 5724 5723
5766 5766 5765 5763 5762 5762 5761 5758 5755 5754 5754 5751 5750 5749 5746 5745 5744 5742 5740 5739 5738 5736 5733 5733 5730 5729 5729 5728 5729 5731 5733 5732 5732 5733 5733 5731 5731 5730 5729 5728 5727 5726 5725
5767 5768 5768 5767 5766 5765 5763 5761 5758 5757 5754 5753 5752 5751 5748 5747 5745 5744 5743 5741 5740 5737 5736 5733 5732 5730 5730 5730 5727 5729 5731 5732 5733 5734 5734 5733 5734 5733 5731 5730 5729 5728 5726
5770 5769 5769 5769 5768 5767 5767 5763 5762 5760 5758 5755 5753 5754 5754 5754 5751 5749 5747 5745 5744 5741 5738 5737 5734 5732 5731 5730 5727 5727 5728 5730 5732 5734 5734 5735 5734 5734 5734 5733 5732 5731 5729
5772 5771 5771 5771 5769 5769 5770 5769 5768 5764 5764 5760 5756 5758 5758 5759 5758 5756 5752 5750 5748 5744 5742 5739 5736 5734 5733 5731 5728 5725 5727 5728 5730 5732 5734 5735 5736 5736 5736 5735 5736 5734 5733
5773 5773 5774 5773 5772 5772 5771 5771 5768 5767 5767 5763 5761 5759 5762 5763 5764 5762 5759 5755 5750 5748 5744 5741 5739 5736 5734 5732 5730 5730 5728 5730 5728 5730 5733 5734 5736 5737 5738 5737 5738 5737 5735
5775 5773 5775 5777 5776 5774 5774 5773 5770 5766 5765 5764 5761 5767 5770 5771 5768 5767 5765 5759 5756 5751 5746 5743 5742 5738 5738 5734 5733 5733 5732 5730 5730 5729 5731 5733 5734 5737 5738 5738 5737 5738 5737
5778 5776 5775 5776 5777 5774 5773 5773 5769 5766 5766 5765 5759 5761 5761 5768 5770 5771 5766 5764 5761 5758 5753 5751 5746 5743 5740 5738 5737 5735 5734 5733 5731 5732 5731 5731 5733 5734 5736 5737 5737 5738 5737
5780 5778 5774 5774 5775 5773 5774 5772 5772 5769 5765 5767 5765 5758 5755 5758 5761 5768 5768 5767 5763 5762 5757 5758 5756 5753 5747 5743 5741 5739 5739 5737 5735 5733 5733 5732 5731 5732 5734 5735 5736 5736 5736
5779 5778 5777 5775 5774 5775 5773 5773 5772 5768 5764 5763 5764 5763 5764 5761 5753 5756 5764 5765 5766 5765 5764 5760 5760 5758 5754 5750 5745 5746 5745 5743 5740 5735 5734 5734 5732 5731 5732 5734 5734 5735 5735
5780 5778 5776 5776 5776 5775 5775 5772 5770 5768 5766 5763 5761 5761 5760 5761 5758 5750 5752 5759 5764 5767 5765 5762 5761 5762 5757 5753 5751 5749 5748 5746 5742 5738 5736 5734 5732 5732 5731 5732 5733 5733 5734
5789 5785 5781 5778 5778 5777 5774 5773 5773 5771 5769 5766 5765 5764 5761 5757 5753 5749 5747 5752 5756 5765 5768 5768 5765 5765 5759 5756 5755 5753 5750 5747 5744 5741 5738 5736 5734 5732 5732 5731 5732 5732 5732
5787 5787 5784 5782 5781 5778 5778 5775 5772 5771 5769 5767 5765 5763 5763 5763 5760 5755 5752 5755 5754 5764 5767 5770 5771 5769 5765 5757 5755 5754 5753 5749 5746 5742 5739 5736 5736 5734 5731 5731 5732 5731 5731
5788 5786 5782 5781 5782 5779 5779 5775 5771 5767 5764 5765 5762 5762 5765 5765 5763 5757 5753 5751 5752 5761 5763 5760 5772 5771 5768 5763 5760 5757 5754 5751 5747 5743 5741 5738 5737 5735 5733 5730 5731 5731 5730
5790 5786 5783 5781 5780 5777 5774 5772 5766 5762 5760 5759 5760 5757 5759 5760 5758 5757 5754 5754 5751 5748 5756 5761 5760 5769 5768 5764 5762 5759 5758 5756 5750 5746 5743 5741 5738 5736 5734 5731 5730 5730 5731
5791 5788 5785 5781 5780 5776 5773 5769 5763 5759 5755 5754 5754 5751 5753 5757 5760 5757 5754 5754 5752 5750 5745 5760 5764 5767 5766 5764 5762 5759 5758 5757 5755 5751 5747 5744 5741 5738 5736 5734 5732 5732 5731
5792 5789 5786 5784 5781 5777 5772 5768 5762 5757 5751 5751 5750 5750 5751 5755 5758 5758 5757 5755 5752 5751 5748 5756 5763 5767 5764 5764 5764 5760 5759 5758 5757 5755 5751 5747 5744 5739 5737 5736 5734 5731 5731
5796 5791 5787 5785 5781 5778 5773 5767 5760 5756 5751 5750 5748 5749 5749 5753 5753 5760 5758 5756 5755 5754 5752 5751 5760 5762 5760 5765 5764 5762 5763 5760 5760 5759 5756 5750 5748 5745 5742 5738 5733 5730 5729
5797 5794 5789 5786 5781 5778 5773 5768 5762 5758 5755 5751 5751 5749 5752 5753 5754 5760 5758 5756 5755 5756 5756 5755 5757 5764 5762 5763 5761 5761 5761 5762 5761 5761 5758 5753 5750 5749 5745 5741 5736 5732 5731
5796 5793 5791 5788 5781 5778 5774 5770 5765 5760 5758 5755 5753 5752 5755 5757 5755 5757 5759 5757 5757 5759 5758 5754 5754 5755 5757 5762 5760 5757 5753 5759 5763 5765 5760 5757 5752 5750 5750 5744 5738 5740 5733
5794 5792 5791 5786 5781 5779 5776 5771 5765 5763 5760 5758 5757 5755 5755 5757 5756 5756 5758 5760 5758 5757 5756 5755 5754 5754 5753 5749 5751 5754 5752 5756 5762 5764 5763 5759 5753 5753 5751 5747 5743 5738 5735
5792 5790 5786 5782 5779 5778 5773 5766 5762 5763 5761 5760 5759 5760 5759 5757 5760 5758 5757 5757 5757 5753 5751 5755 5751 5750 5750 5747 5748 5744 5743 5745 5749 5766 5764 5760 5750 5755 5755 5754 5750 5744 5741
5786 5783 5777 5773 5772 5771 5766 5761 5757 5760 5760 5759 5758 5757 5757 5761 5757 5757 5756 5755 5753 5752 5750 5752 5749 5750 5748 5746 5743 5739 5739 5741 5752 5759 5761 5764 5758 5753 5755 5757 5754 5751 5746
5775 5772 5770 5767 5766 5764 5760 5757 5755 5756 5758 5758 5757 5754 5753 5755 5756 5753 5752 5754 5755 5757 5756 5754 5753 5754 5754 5747 5739 5740 5737 5740 5748 5757 5759 5755 5763 5760 5762 5760 5759 5756 5754
5768 5765 5762 5759 5756 5755 5752 5750 5748 5753 5754 5753 5754 5753 5752 5753 5753 5749 5750 5750 5751 5754 5754 5751 5751 5750 5745 5747 5732 5733 5735 5732 5738 5750 5756 5758 5764 5762 5762 5764 5766 5763 5759
5754 5753 5750 5750 5749 5748 5745 5743 5743 5747 5749 5749 5751 5752 5749 5748 5749 5746 5746 5747 5745 5748 5746 5745 5743 5742 5742 5740 5741 5735 5740 5733 5740 5740 5755 5750 5758 5759 5756 5768 5766 5765 5760